Location: Musselshell
(46.5176°N, 108.0911°W)
Time: 13:00:00
(UTC+00:00)

AO-92 - Visible Passes

Search period start: 28 June 2022 00:00
Search period end: 08 July 2022 00:00
Orbit: 472 x 481 km, 97.4° (Epoch: 28 June)

Date Brightness Start Highest point End Pass type
(mag) Time Alt. Az. Time Alt. Az. Time Alt. Az.
28 Jun ? 03:51:26 10° ENE 03:52:28 11° ENE 03:53:28 10° NE visible
28 Jun ? 05:23:36 29° S 05:25:15 63° W 05:28:48 10° NNW visible
29 Jun ? 04:56:40 24° SE 04:58:35 58° ENE 05:02:06 10° N visible
29 Jun ? 06:31:43 10° W 06:32:16 10° W 06:32:47 10° W visible
30 Jun ? 04:29:44 15° ESE 04:32:00 28° ENE 04:35:06 10° N visible
30 Jun ? 06:03:56 17° SW 06:05:20 21° W 06:08:04 10° NW visible
01 Jul ? 04:03:27 10° E 04:05:31 15° ENE 04:07:37 10° NNE visible
01 Jul ? 05:36:59 26° SSW 05:38:29 42° W 05:41:54 10° NNW visible
02 Jul ? 05:10:01 29° SSE 05:11:44 86° ENE 05:15:19 10° NNW visible
03 Jul ? 04:43:02 20° SE 04:45:05 39° ENE 04:48:27 10° N visible
03 Jul ? 06:17:15 13° WSW 06:18:35 15° W 06:20:40 10° NW visible
04 Jul ? 04:16:04 11° ESE 04:18:32 20° ENE 04:21:13 10° NNE visible
04 Jul ? 05:50:16 22° SW 05:51:39 29° W 05:54:50 10° NNW visible
05 Jul ? 03:51:05 10° ENE 03:52:03 11° ENE 03:53:02 10° NE visible
05 Jul ? 05:23:16 30° S 05:24:50 64° W 05:28:23 10° NNW visible
06 Jul ? 04:56:17 25° SE 04:58:06 57° ENE 05:01:37 10° N visible
06 Jul ? 06:31:00 10° W 06:31:46 10° W 06:32:30 10° WNW visible
07 Jul ? 04:29:16 15° ESE 04:31:27 28° ENE 04:34:33 10° N visible
07 Jul ? 06:03:28 18° WSW 06:04:45 21° W 06:07:32 10° NW visible
